Date,TemperatureHighF,TemperatureAvgF,TemperatureLowF,DewpointHighF,DewpointAvgF,DewpointLowF,HumidityHigh,HumidityAvg,HumidityLow,PressureMaxIn,PressureMinIn,WindSpeedMaxMPH,WindSpeedAvgMPH,GustSpeedMaxMPH,PrecipitationSumIn
2013-4-1,77,62,46,28,19,3,44,22,7,30.12,29.92,23,6,23,0.00
2013-4-2,71,56,45,29,17,-3,46,23,6,30.05,29.89,33,8,33,0.00
2013-4-3,70,54,39,32,27,18,68,39,14,30.17,30.04,22,7,22,0.00
2013-4-4,76,58,38,32,21,12,60,30,9,30.26,30.10,16,5,16,0.00
2013-4-5,78,63,47,20,15,7,30,17,7,30.15,29.90,26,8,26,0.00
2013-4-6,78,64,48,27,22,15,38,21,10,30.07,29.90,23,7,23,0.00
2013-4-7,79,66,50,28,21,14,37,19,9,29.99,29.84,24,9,24,0.00
2013-4-8,77,64,51,30,22,11,39,21,8,29.86,29.51,41,15,41,0.00
2013-4-9,54,47,41,37,32,27,80,56,39,29.92,29.55,26,11,26,0.01
2013-4-10,52,43,37,36,26,19,85,53,34,30.02,29.92,22,8,22,0.00
2013-4-11,69,50,31,31,24,16,59,39,21,30.02,29.89,30,10,30,0.00
2013-4-12,73,58,45,35,29,22,61,36,17,30.01,29.90,18,5,18,0.00
2013-4-13,78,62,40,28,20,12,49,24,10,29.99,29.76,24,8,24,0.00
2013-4-14,80,66,54,26,23,17,30,20,10,29.81,29.71,33,13,33,0.00
2013-4-15,82,66,50,27,19,8,34,18,6,29.86,29.69,34,13,34,0.00
2013-4-16,81,67,54,26,16,-1,27,16,4,29.90,29.73,36,15,36,0.00
2013-4-17,63,54,40,29,21,7,43,29,12,30.02,29.77,30,12,30,0.00
2013-4-18,54,42,30,18,7,0,44,26,12,30.23,30.02,29,13,29,0.00
2013-4-19,68,47,29,10,6,2,36,20,8,30.31,30.04,16,6,16,0.00
2013-4-20,72,56,42,21,12,3,32,18,9,30.09,29.93,32,9,32,0.00
2013-4-21,78,58,38,26,18,0,47,24,5,30.19,30.03,24,7,24,0.00
2013-4-22,85,66,44,20,14,7,32,16,6,30.08,29.87,26,9,26,0.00
2013-4-23,70,58,41,31,17,-15,56,24,5,30.15,29.91,34,11,34,0.00
2013-4-24,71,50,30,22,18,12,61,32,12,30.23,30.07,20,7,20,0.00
2013-4-25,77,61,48,31,24,11,39,26,9,30.17,29.91,31,10,31,0.00
2013-4-26,79,62,45,32,20,-4,51,26,4,30.24,30.08,23,7,23,0.00
2013-4-27,80,63,45,30,13,-12,43,20,3,30.28,30.10,17,7,17,0.00
2013-4-28,84,64,43,15,6,-5,24,12,4,30.16,29.96,18,6,18,0.00
2013-4-29,88,68,47,18,13,4,27,13,6,30.04,29.84,21,6,21,0.00
2013-4-30,89,71,52,24,15,5,27,14,5,29.96,29.82,23,8,23,0.00